Location: Unspecified
(0.0000°N, 0.0000°E)
Time: 06:50:33
(UTC+00:00)

S-56A Canister/Altair - Pass Details

Date: 25 May 2024
Orbit: 637 x 2489 km, 38.9° (Epoch: 22 June)

Event Time Altitude Azimuth Distance (km) Brightness Sun altitude
Rises 13:58:33 0° 309° (NW) 3,168 11.3 53.6°
Reaches altitude 10° 14:01:05 10° 307° (NW) 2,125 10.6 53.1°
Maximum altitude 14:05:45 77° 221° (SW) 653 8.2 52.2°
Drops below altitude 10° 14:10:16 10° 135° (SE) 2,063 9.5 51.2°
Sets 14:12:42 0° 134° (SE) 3,067 10.2 50.7°
